Regional Weather Roundup
Issued by NWS

Home | Current Version | Previous Version | Text Only | Print | Product List | Glossary On
Versions: 1 2 3 4 5 6 7 8 9 10 11 12 13 14 15 16 17 18 19 20 21 22 23 24 25 26 27 28 29 30 31 32 33 34 35 36 37 38 39 40 41 42 43 44 45 46 47 48 49 50
000
ASCA44 KEWX 022320
RWRMX

LATIN AMERICA AND CARIBBEAN REGIONAL WEATHER ROUNDUP
NATIONAL WEATHER SERVICE AUSTIN/SAN ANTONIO TX
600 PM CDT THU JUL 02 2015

NOTE: "FAIR" INDICATED FEW OR NO CLOUDS BELOW 12,000 FEET WITH NO
SIGNIFICANT WEATHER AND/OR OBSTRUCTIONS TO VISIBILITY.

BAJA CALIFORNIA

CITY           SKY/WX    TMP DP  RH WIND       PRES   REMARKS
LORETO         MOSUNNY   97  84  67 NE12      29.76F HX 126
LA PAZ         MOSUNNY   90  72  55 NW15      29.79F HX  96
MEXICALI         N/A    N/A N/A N/A MISG        N/A
S.J. DEL CABO  SUNNY     88  66  48 E14       29.81F HX  90
TIJUANA        SUNNY     77  61  57 W15       29.97F

NORTHWESTERN MEXICO

CITY           SKY/WX    TMP DP  RH WIND       PRES   REMARKS
CULIACAN       PTSUNNY   95  75  52 W12       29.79F HX 107
DURANGO        PTSUNNY   77  52  41 NE9       30.13F
GUAYMAS          N/A    N/A N/A N/A MISG        N/A
HERMOSILLO     PTSUNNY  104  63  25 W10       29.79F HX 106
CD. JUAREZ     PTSUNNY  100  59  25 S6        29.87F HX 100
LOS MOCHIS     PTSUNNY   90  70  51 SW12      29.82R HX  95
OBREGON        PTSUNNY   97  68  38 W15       29.75F HX 101

NORTHEASTERN MEXICO

CITY           SKY/WX    TMP DP  RH WIND       PRES   REMARKS
CHIHUAHUA      PTSUNNY   93  48  21 NE9       29.95F HX  90
MATAMOROS      MOSUNNY   90  75  62 S14       29.99S HX 100
MONCLOVA       PTSUNNY   91  70  49 NE13      29.85F HX  97
MONTERREY      CLOUDY    82  70  65 E7G18     29.91F
NUEVO LAREDO   PTSUNNY   93  68  43 S12       29.89F HX  97
PIEDRAS NEGRAS MOSUNNY   90  70  51 SE12      29.89  HX  95
REYNOSA        MOSUNNY   84  66  54 SE14G25   29.94F
SALTILLO       PTSUNNY   79  64  61 NE21      30.05F
TORREON        PTSUNNY   93  59  31 N9        29.94F HX  92
CD. VICTORIA   PTSUNNY   77  70  78 SE8       29.94F

WESTERN MEXICO

CITY           SKY/WX    TMP DP  RH WIND       PRES   REMARKS
AGUASCALIENTES CLOUDY    68  52  56 W5        30.18R
COLIMA           N/A    N/A N/A N/A MISG        N/A
DEL BAJIO      CLOUDY    72  59  64 NE3       30.15F
GUADALAJARA    PTSUNNY   82  54  36 SW6       30.05F
MANZANILLO     MOSUNNY   90  81  74 W12       29.72F HX 108
MAZATLAN       PTSUNNY   84  70  61 SW13      29.78F
P. VALLARTA    PTSUNNY   90  81  74 SW13      29.77F HX 108
URUAPAN        PTSUNNY   70  63  78 CALM      30.12S
ZACATECAS      PTSUNNY   63  54  72 S12       30.22S

CENTRAL MEXICO

CITY           SKY/WX    TMP DP  RH WIND       PRES   REMARKS
CUERNAVACA     PTSUNNY   73  59  60 N3        30.03F
MEXICO CITY    CLOUDY    61  54  77 NW6       30.29S
MORELIA        TSTM      63  59  88 S15G30    30.15R VSB 1
POZA RICA      CLOUDY    82  73  74 E12       29.94S
PUEBLA         PTSUNNY   68  54  60 W5        30.24F
QUERETARO      CLOUDY    61  57  88 SE6       30.25F
S. LUIS POTOSI PTSUNNY   70  55  60 SE12      30.19S
TAMPICO        PTSUNNY   81  73  78 N10       29.93F
TOLUCA         LGT RAIN  57  52  82 CALM      30.33F

SOUTHERN MEXICO

CITY           SKY/WX    TMP DP  RH WIND       PRES   REMARKS
ACAPULCO       PTSUNNY   88  75  66 W5        29.76S HX  97
B. DE HUATULCO PTSUNNY   84  72  65 CALM      29.84F HAZE
OAXACA         PTSUNNY   79  52  38 SE6       30.09F
P. ESCONDIDO   CLOUDY    86  75  70 SW7       29.86F HX  95
VERACRUZ       PTSUNNY   84  75  74 E7        29.89F HX  92
ZIHUATANEJO    PTSUNNY   90  77  66 SW12      29.78F HX 102

YUCATAN PENINSULA

CITY           SKY/WX    TMP DP  RH WIND       PRES   REMARKS
CAMPECHE       CLOUDY    81  73  78 E12G23    29.91R
CANCUN         PTSUNNY   84  77  79 E12       30.00S HX  94
CHETUMAL       CLOUDY    82  73  74 CALM      29.93F
CD. DEL CARMEN PTSUNNY   84  75  74 NE10      29.88F HX  92
COZUMEL        PTSUNNY   82  75  78 E9        29.98S
MERIDA         TSTM      75  72  88 S25G44    29.96R
MINATITLAN     PTSUNNY   82  68  61 N12       29.82S
TAPACHULA      MOSUNNY   88  81  79 W17       29.78F HX 105
TUX. GUTIERREZ PTSUNNY   88  64  45 NW13      29.84R
VILLAHERMOSA   PTSUNNY   90  72  55 E17       29.85F HX  96

CENTRAL AMERICA

CITY           SKY/WX    TMP DP  RH WIND       PRES   REMARKS
BELIZE CITY    MOSUNNY   84  79  84 E9        29.91S HX  96
MANAGUA        PTCLDY    90  72  55 NE14      29.71S HX  96

CARIBBEAN

CITY           SKY/WX    TMP DP  RH WIND       PRES   REMARKS
ARUBA          PTCLDY    82  77  83 E23G36    29.86S HX  91
CURACAO        PTCLDY    81  73  78 E14       29.89S
KINGSTON       PTCLDY    88  73  62 SE26      29.92R HX  96
NASSAU         MOSUNNY   86  72  62 SE8       30.07F HX  92
SAN JUAN       PTCLDY    82  75  78 E17       30.06R
SANTO DOMINGO  PTCLDY    84  73  70 SE9       30.00S HX  91
ST. CROIX      PTCLDY    82  73  74 NE12      30.05R
ST. KITTS      PTCLDY    81  75  83 NE17      30.03S
ST. MAARTEN    MOCLDY    82  72  69 E10       30.06R
ST. THOMAS     CLOUDY    84  72  65 E12       30.05R

$$



USA.gov is the U.S. government's official web portal to all federal, state and local government web resources and services.